Time,TemperatureF,DewpointF,PressureIn,WindDirection,WindDirectionDegrees,WindSpeedMPH,WindSpeedGustMPH,Humidity,HourlyPrecipIn,Conditions,Clouds,dailyrainin,SoftwareType,DateUTC
2013-01-06 00:00:00,21.4,18.1,30.21,NW,313,0.0,0.0,87,0.00,,---,0.00,VWS V14.01,2013-01-06 05:00:00,
2013-01-06 00:05:00,21.5,18.2,30.21,NW,313,0.0,0.0,87,0.00,,---,0.00,VWS V14.01,2013-01-06 05:05:00,
2013-01-06 00:10:00,21.6,18.3,30.21,NW,313,0.0,0.0,87,0.00,,---,0.00,VWS V14.01,2013-01-06 05:10:00,
2013-01-06 00:15:00,21.7,18.4,30.20,NW,313,0.0,0.0,87,0.00,,---,0.00,VWS V14.01,2013-01-06 05:15:00,
2013-01-06 00:20:00,21.7,18.4,30.20,NW,313,0.0,0.0,87,0.00,,---,0.00,VWS V14.01,2013-01-06 05:20:00,
2013-01-06 00:24:00,21.7,18.4,30.20,NW,313,0.0,0.0,87,0.00,,---,0.00,VWS V14.01,2013-01-06 05:24:00,
2013-01-06 00:25:00,21.7,18.4,30.20,NW,313,0.0,0.0,87,0.00,,---,0.00,VWS V14.01,2013-01-06 05:25:00,
2013-01-06 00:29:00,21.8,18.5,30.19,NW,313,0.0,0.0,87,0.00,,---,0.00,VWS V14.01,2013-01-06 05:29:00,
2013-01-06 00:30:00,21.8,18.5,30.20,NW,313,0.0,0.0,87,0.00,,---,0.00,VWS V14.01,2013-01-06 05:30:00,
2013-01-06 00:34:00,21.8,18.5,30.20,NW,313,0.0,0.0,87,0.00,,---,0.00,VWS V14.01,2013-01-06 05:34:00,
2013-01-06 00:35:00,21.8,18.5,30.20,NW,313,0.0,0.0,87,0.00,,---,0.00,VWS V14.01,2013-01-06 05:35:00,
2013-01-06 00:40:00,21.8,18.5,30.19,NW,313,0.0,0.0,87,0.00,,---,0.00,VWS V14.01,2013-01-06 05:40:00,
2013-01-06 00:45:00,21.8,18.5,30.19,NW,313,0.0,0.0,87,0.00,,---,0.00,VWS V14.01,2013-01-06 05:45:00,
2013-01-06 00:50:00,21.9,18.6,30.19,NW,313,0.0,0.0,87,0.00,,---,0.00,VWS V14.01,2013-01-06 05:50:00,
2013-01-06 00:54:00,22.0,18.7,30.20,NW,313,0.0,0.0,87,0.00,,---,0.00,VWS V14.01,2013-01-06 05:54:00,
2013-01-06 00:55:00,22.0,18.7,30.20,NW,313,0.0,0.0,87,0.00,,---,0.00,VWS V14.01,2013-01-06 05:55:00,
2013-01-06 00:59:00,22.2,18.9,30.19,NW,313,0.0,0.0,87,0.00,,---,0.00,VWS V14.01,2013-01-06 05:59:00,
2013-01-06 01:00:00,22.2,18.9,30.19,NW,313,0.0,0.0,87,0.00,,---,0.00,VWS V14.01,2013-01-06 06:00:00,
2013-01-06 01:05:00,22.4,19.1,30.19,NW,313,0.0,1.0,87,0.00,,---,0.00,VWS V14.01,2013-01-06 06:05:00,
2013-01-06 01:10:00,22.8,19.2,30.19,NW,313,0.0,0.0,86,0.00,,---,0.00,VWS V14.01,2013-01-06 06:10:00,
2013-01-06 01:14:00,22.9,19.4,30.20,NW,313,0.0,0.0,86,0.00,,---,0.00,VWS V14.01,2013-01-06 06:14:00,
2013-01-06 01:15:00,22.9,19.4,30.20,NW,313,0.0,0.0,86,0.00,,---,0.00,VWS V14.01,2013-01-06 06:15:00,
2013-01-06 01:20:00,23.1,19.3,30.21,NW,313,0.0,0.0,85,0.00,,---,0.00,VWS V14.01,2013-01-06 06:20:00,
2013-01-06 01:25:00,23.5,19.1,30.21,NW,313,0.0,1.0,83,0.00,,---,0.00,VWS V14.01,2013-01-06 06:25:00,
2013-01-06 01:30:00,23.9,19.2,30.21,NW,313,0.0,0.0,82,0.00,,---,0.00,VWS V14.01,2013-01-06 06:30:00,
2013-01-06 01:35:00,24.0,19.3,30.21,NW,313,0.0,0.0,82,0.00,,---,0.00,VWS V14.01,2013-01-06 06:35:00,
2013-01-06 01:40:00,24.2,19.2,30.22,NW,313,0.0,0.0,81,0.00,,---,0.00,VWS V14.01,2013-01-06 06:40:00,
2013-01-06 01:45:00,24.3,19.0,30.22,NW,313,0.0,0.0,80,0.00,,---,0.00,VWS V14.01,2013-01-06 06:45:00,
2013-01-06 01:50:00,24.4,19.7,30.23,NW,313,0.0,0.0,82,0.00,,---,0.00,VWS V14.01,2013-01-06 06:50:00,
2013-01-06 01:55:00,24.3,19.9,30.23,NW,313,0.0,0.0,83,0.00,,---,0.00,VWS V14.01,2013-01-06 06:55:00,
2013-01-06 02:00:00,24.2,19.8,30.23,NW,313,0.0,0.0,83,0.00,,---,0.00,VWS V14.01,2013-01-06 07:00:00,
2013-01-06 02:05:00,24.2,19.8,30.23,NW,313,0.0,0.0,83,0.00,,---,0.00,VWS V14.01,2013-01-06 07:05:00,
2013-01-06 02:10:00,24.1,19.7,30.24,NW,313,0.0,0.0,83,0.00,,---,0.00,VWS V14.01,2013-01-06 07:10:00,
2013-01-06 02:15:00,24.1,19.7,30.23,NW,313,0.0,0.0,83,0.00,,---,0.00,VWS V14.01,2013-01-06 07:15:00,
2013-01-06 02:20:00,24.3,20.5,30.23,NW,313,0.0,0.0,85,0.00,,---,0.00,VWS V14.01,2013-01-06 07:20:00,
2013-01-06 02:24:00,24.3,20.2,30.22,NW,313,0.0,0.0,84,0.00,,---,0.00,VWS V14.01,2013-01-06 07:24:00,
2013-01-06 02:25:00,24.3,20.2,30.22,NW,313,0.0,0.0,84,0.00,,---,0.00,VWS V14.01,2013-01-06 07:25:00,
2013-01-06 02:29:00,24.2,20.1,30.22,NW,313,0.0,0.0,84,0.00,,---,0.00,VWS V14.01,2013-01-06 07:29:00,
2013-01-06 02:30:00,24.2,20.1,30.22,NW,313,0.0,0.0,84,0.00,,---,0.00,VWS V14.01,2013-01-06 07:30:00,
2013-01-06 02:35:00,24.2,20.1,30.21,NW,313,0.0,0.0,84,0.00,,---,0.00,VWS V14.01,2013-01-06 07:35:00,
2013-01-06 02:40:00,24.1,20.0,30.21,NW,313,0.0,0.0,84,0.00,,---,0.00,VWS V14.01,2013-01-06 07:40:00,
2013-01-06 02:45:00,24.1,20.0,30.20,NW,313,0.0,0.0,84,0.00,,---,0.00,VWS V14.01,2013-01-06 07:45:00,
2013-01-06 02:49:00,24.2,20.1,30.19,NW,313,0.0,0.0,84,0.00,,---,0.00,VWS V14.01,2013-01-06 07:49:00,
2013-01-06 02:50:00,24.2,20.1,30.19,NW,313,0.0,0.0,84,0.00,,---,0.00,VWS V14.01,2013-01-06 07:50:00,
2013-01-06 02:55:00,24.2,20.1,30.20,NW,313,0.0,0.0,84,0.00,,---,0.00,VWS V14.01,2013-01-06 07:55:00,
2013-01-06 03:00:00,24.2,20.4,30.20,NW,313,0.0,0.0,85,0.00,,---,0.00,VWS V14.01,2013-01-06 08:00:00,
2013-01-06 03:05:00,24.3,20.5,30.20,NW,313,0.0,0.0,85,0.00,,---,0.00,VWS V14.01,2013-01-06 08:05:00,
2013-01-06 03:10:00,24.3,20.5,30.19,NW,313,0.0,0.0,85,0.00,,---,0.00,VWS V14.01,2013-01-06 08:10:00,
2013-01-06 03:15:00,24.4,20.8,30.18,NW,313,0.0,0.0,86,0.00,,---,0.00,VWS V14.01,2013-01-06 08:15:00,
2013-01-06 03:19:00,24.5,20.9,30.18,NW,313,0.0,0.0,86,0.00,,---,0.00,VWS V14.01,2013-01-06 08:19:00,
2013-01-06 03:20:00,24.5,20.9,30.18,NW,313,0.0,0.0,86,0.00,,---,0.00,VWS V14.01,2013-01-06 08:20:00,
2013-01-06 03:25:00,24.7,20.8,30.17,NW,313,0.0,0.0,85,0.00,,---,0.00,VWS V14.01,2013-01-06 08:25:00,
2013-01-06 03:30:00,24.8,21.2,30.17,NW,313,0.0,0.0,86,0.00,,---,0.00,VWS V14.01,2013-01-06 08:30:00,
2013-01-06 03:35:00,24.9,21.3,30.17,NW,313,0.0,0.0,86,0.00,,---,0.00,VWS V14.01,2013-01-06 08:35:00,
2013-01-06 03:40:00,24.9,21.0,30.17,NW,313,0.0,0.0,85,0.00,,---,0.00,VWS V14.01,2013-01-06 08:40:00,
2013-01-06 03:45:00,24.9,21.0,30.16,NW,313,0.0,0.0,85,0.00,,---,0.00,VWS V14.01,2013-01-06 08:45:00,
2013-01-06 03:50:00,25.0,21.1,30.16,NW,313,0.0,0.0,85,0.00,,---,0.00,VWS V14.01,2013-01-06 08:50:00,
2013-01-06 03:55:00,25.1,21.5,30.16,NW,313,0.0,0.0,86,0.00,,---,0.00,VWS V14.01,2013-01-06 08:55:00,
2013-01-06 04:00:00,25.1,21.5,30.16,NW,313,0.0,0.0,86,0.00,,---,0.00,VWS V14.01,2013-01-06 09:00:00,
2013-01-06 04:05:00,25.2,21.0,30.15,NW,313,0.0,0.0,84,0.00,,---,0.00,VWS V14.01,2013-01-06 09:05:00,
2013-01-06 04:10:00,25.4,21.2,30.15,NW,313,0.0,0.0,84,0.00,,---,0.00,VWS V14.01,2013-01-06 09:10:00,
2013-01-06 04:15:00,25.6,21.5,30.14,NW,313,0.0,0.0,84,0.00,,---,0.00,VWS V14.01,2013-01-06 09:15:00,
2013-01-06 04:20:00,25.7,21.5,30.15,NW,313,0.0,0.0,84,0.00,,---,0.00,VWS V14.01,2013-01-06 09:20:00,
2013-01-06 04:25:00,26.0,21.0,30.15,NW,313,0.0,2.0,81,0.00,,---,0.00,VWS V14.01,2013-01-06 09:25:00,
2013-01-06 04:29:00,26.2,20.9,30.15,NW,313,0.0,0.0,80,0.00,,---,0.00,VWS V14.01,2013-01-06 09:29:00,
2013-01-06 04:30:00,26.2,20.9,30.15,NW,313,0.0,0.0,80,0.00,,---,0.00,VWS V14.01,2013-01-06 09:30:00,
2013-01-06 04:35:00,26.4,21.1,30.15,NW,313,0.0,0.0,80,0.00,,---,0.00,VWS V14.01,2013-01-06 09:35:00,
2013-01-06 04:40:00,26.5,21.5,30.15,NW,313,0.0,0.0,81,0.00,,---,0.00,VWS V14.01,2013-01-06 09:40:00,
2013-01-06 04:44:00,26.6,21.0,30.14,NW,313,0.0,1.0,79,0.00,,---,0.00,VWS V14.01,2013-01-06 09:44:00,
2013-01-06 04:45:00,26.6,21.0,30.14,NW,313,0.0,1.0,79,0.00,,---,0.00,VWS V14.01,2013-01-06 09:45:00,
2013-01-06 04:50:00,26.6,21.3,30.13,NW,313,0.0,0.0,80,0.00,,---,0.00,VWS V14.01,2013-01-06 09:50:00,
2013-01-06 04:55:00,26.6,21.3,30.13,NW,313,0.0,0.0,80,0.00,,---,0.00,VWS V14.01,2013-01-06 09:55:00,
2013-01-06 05:00:00,26.6,21.6,30.13,NW,313,0.0,0.0,81,0.00,,---,0.00,VWS V14.01,2013-01-06 10:00:00,
2013-01-06 05:05:00,26.6,21.6,30.13,NW,313,0.0,0.0,81,0.00,,---,0.00,VWS V14.01,2013-01-06 10:05:00,
2013-01-06 05:10:00,26.6,21.9,30.13,NW,313,0.0,0.0,82,0.00,,---,0.00,VWS V14.01,2013-01-06 10:10:00,
2013-01-06 05:15:00,26.6,21.9,30.13,NW,313,0.0,0.0,82,0.00,,---,0.00,VWS V14.01,2013-01-06 10:15:00,
2013-01-06 05:20:00,26.6,21.9,30.13,NW,313,0.0,0.0,82,0.00,,---,0.00,VWS V14.01,2013-01-06 10:20:00,
2013-01-06 05:25:00,26.6,21.9,30.12,NW,313,0.0,0.0,82,0.00,,---,0.00,VWS V14.01,2013-01-06 10:25:00,
2013-01-06 05:30:00,26.5,22.0,30.12,NW,313,0.0,0.0,83,0.00,,---,0.00,VWS V14.01,2013-01-06 10:30:00,
2013-01-06 05:35:00,26.5,22.3,30.12,NW,313,0.0,0.0,84,0.00,,---,0.00,VWS V14.01,2013-01-06 10:35:00,
2013-01-06 05:40:00,26.6,22.4,30.12,NW,313,0.0,0.0,84,0.00,,---,0.00,VWS V14.01,2013-01-06 10:40:00,
2013-01-06 05:45:00,26.6,22.7,30.11,NW,313,0.0,0.0,85,0.00,,---,0.00,VWS V14.01,2013-01-06 10:45:00,
2013-01-06 05:50:00,26.6,22.7,30.11,NW,313,0.0,0.0,85,0.00,,---,0.00,VWS V14.01,2013-01-06 10:50:00,
2013-01-06 05:55:00,26.5,22.6,30.11,NW,313,0.0,0.0,85,0.00,,---,0.00,VWS V14.01,2013-01-06 10:55:00,
2013-01-06 06:00:00,26.5,22.6,30.10,NW,313,0.0,0.0,85,0.00,,---,0.00,VWS V14.01,2013-01-06 11:00:00,
2013-01-06 06:05:00,26.6,22.7,30.11,NW,313,0.0,0.0,85,0.00,,---,0.00,VWS V14.01,2013-01-06 11:05:00,
2013-01-06 06:10:00,26.6,22.7,30.11,NW,313,0.0,0.0,85,0.00,,---,0.00,VWS V14.01,2013-01-06 11:10:00,
2013-01-06 06:15:00,26.6,23.0,30.11,NW,313,0.0,0.0,86,0.00,,---,0.00,VWS V14.01,2013-01-06 11:15:00,
2013-01-06 06:19:00,26.6,22.7,30.10,NW,313,0.0,0.0,85,0.00,,---,0.00,VWS V14.01,2013-01-06 11:19:00,
2013-01-06 06:20:00,26.6,22.7,30.10,NW,313,0.0,0.0,85,0.00,,---,0.00,VWS V14.01,2013-01-06 11:20:00,
2013-01-06 06:25:00,26.6,22.7,30.10,NW,313,0.0,0.0,85,0.00,,---,0.00,VWS V14.01,2013-01-06 11:25:00,
2013-01-06 06:30:00,26.7,22.8,30.10,SW,215,0.0,2.0,85,0.00,,---,0.00,VWS V14.01,2013-01-06 11:30:00,
2013-01-06 06:34:00,26.8,22.9,30.10,SW,215,0.0,0.0,85,0.00,,---,0.00,VWS V14.01,2013-01-06 11:34:00,
2013-01-06 06:35:00,26.8,22.9,30.10,SW,215,0.0,0.0,85,0.00,,---,0.00,VWS V14.01,2013-01-06 11:35:00,
2013-01-06 06:40:00,27.0,23.4,30.09,SW,215,0.0,2.0,86,0.00,,---,0.00,VWS V14.01,2013-01-06 11:40:00,
2013-01-06 06:45:00,27.1,23.5,30.09,SW,215,0.0,1.0,86,0.00,,---,0.00,VWS V14.01,2013-01-06 11:45:00,
2013-01-06 06:50:00,27.2,23.6,30.09,NW,310,0.0,2.0,86,0.00,,---,0.00,VWS V14.01,2013-01-06 11:50:00,
2013-01-06 06:55:00,27.4,24.0,30.09,SSW,195,0.0,2.0,87,0.00,,---,0.00,VWS V14.01,2013-01-06 11:55:00,
2013-01-06 07:00:00,27.5,24.1,30.09,SSW,195,0.0,0.0,87,0.00,,---,0.00,VWS V14.01,2013-01-06 12:00:00,
2013-01-06 07:05:00,27.6,24.2,30.10,West,266,0.0,2.0,87,0.00,,---,0.00,VWS V14.01,2013-01-06 12:05:00,
2013-01-06 07:10:00,27.6,24.5,30.09,West,263,0.0,1.0,88,0.00,,---,0.00,VWS V14.01,2013-01-06 12:10:00,
2013-01-06 07:15:00,27.7,24.6,30.09,West,263,0.0,1.0,88,0.00,,---,0.00,VWS V14.01,2013-01-06 12:15:00,
2013-01-06 07:20:00,27.7,24.6,30.09,West,263,3.0,3.0,88,0.00,,---,0.00,VWS V14.01,2013-01-06 12:20:00,
2013-01-06 07:25:00,27.8,24.7,30.08,WSW,239,0.0,3.0,88,0.00,,---,0.00,VWS V14.01,2013-01-06 12:25:00,
2013-01-06 07:30:00,27.8,24.7,30.08,WSW,239,0.0,1.0,88,0.00,,---,0.00,VWS V14.01,2013-01-06 12:30:00,
2013-01-06 07:35:00,27.9,24.8,30.08,SW,231,0.0,4.0,88,0.00,,---,0.00,VWS V14.01,2013-01-06 12:35:00,
2013-01-06 07:40:00,28.0,24.9,30.08,South,177,0.0,2.0,88,0.00,,---,0.00,VWS V14.01,2013-01-06 12:40:00,
2013-01-06 07:45:00,28.2,25.4,30.09,NW,314,0.0,4.0,89,0.00,,---,0.00,VWS V14.01,2013-01-06 12:45:00,
2013-01-06 07:50:00,28.3,25.2,30.09,NW,314,0.0,1.0,88,0.00,,---,0.00,VWS V14.01,2013-01-06 12:50:00,
2013-01-06 07:54:00,28.3,25.2,30.08,South,179,0.0,4.0,88,0.00,,---,0.00,VWS V14.01,2013-01-06 12:54:00,
2013-01-06 07:55:00,28.3,25.2,30.08,South,179,0.0,4.0,88,0.00,,---,0.00,VWS V14.01,2013-01-06 12:55:00,
2013-01-06 08:00:00,28.4,25.6,30.08,South,176,0.0,5.0,89,0.00,,---,0.00,VWS V14.01,2013-01-06 13:00:00,
2013-01-06 08:05:00,28.6,25.8,30.08,NW,314,4.0,4.0,89,0.00,,---,0.00,VWS V14.01,2013-01-06 13:05:00,
2013-01-06 08:10:00,28.8,25.7,30.08,South,188,0.0,5.0,88,0.00,,---,0.00,VWS V14.01,2013-01-06 13:10:00,
2013-01-06 08:15:00,28.9,25.8,30.08,ESE,120,0.0,4.0,88,0.00,,---,0.00,VWS V14.01,2013-01-06 13:15:00,
2013-01-06 08:20:00,29.0,25.9,30.08,SSE,158,3.0,3.0,88,0.00,,---,0.00,VWS V14.01,2013-01-06 13:20:00,
2013-01-06 08:25:00,29.2,26.1,30.07,SSW,204,3.0,6.0,88,0.00,,---,0.00,VWS V14.01,2013-01-06 13:25:00,
2013-01-06 08:30:00,29.3,26.2,30.07,ESE,105,0.0,3.0,88,0.00,,---,0.00,VWS V14.01,2013-01-06 13:30:00,
2013-01-06 08:35:00,29.4,26.3,30.07,WNW,302,2.0,4.0,88,0.00,,---,0.00,VWS V14.01,2013-01-06 13:35:00,
2013-01-06 08:40:00,29.7,26.3,30.07,SSW,194,0.0,4.0,87,0.00,,---,0.00,VWS V14.01,2013-01-06 13:40:00,
2013-01-06 08:45:00,29.9,26.5,30.07,SSE,167,4.0,10.0,87,0.00,,---,0.00,VWS V14.01,2013-01-06 13:45:00,
2013-01-06 08:50:00,30.3,26.6,30.07,SW,233,0.0,7.0,86,0.00,,---,0.00,VWS V14.01,2013-01-06 13:50:00,
2013-01-06 08:55:00,30.6,26.6,30.07,WSW,243,5.0,13.0,85,0.00,,---,0.00,VWS V14.01,2013-01-06 13:55:00,
2013-01-06 09:00:00,30.9,26.9,30.07,NW,311,1.0,6.0,85,0.00,,---,0.00,VWS V14.01,2013-01-06 14:00:00,
2013-01-06 09:05:00,31.1,26.8,30.07,SW,221,1.0,7.0,84,0.00,,---,0.00,VWS V14.01,2013-01-06 14:05:00,
2013-01-06 09:10:00,31.2,26.9,30.06,NW,304,6.0,6.0,84,0.00,,---,0.00,VWS V14.01,2013-01-06 14:10:00,
2013-01-06 09:15:00,31.5,26.9,30.06,NE,40,0.0,6.0,83,0.00,,---,0.00,VWS V14.01,2013-01-06 14:15:00,
2013-01-06 09:20:00,31.7,27.1,30.06,NW,315,0.0,7.0,83,0.00,,---,0.00,VWS V14.01,2013-01-06 14:20:00,
2013-01-06 09:25:00,31.9,27.0,30.06,WSW,257,2.0,9.0,82,0.00,,---,0.00,VWS V14.01,2013-01-06 14:25:00,
2013-01-06 09:30:00,32.2,27.0,30.05,SSW,198,3.0,8.0,81,0.00,,---,0.00,VWS V14.01,2013-01-06 14:30:00,
2013-01-06 09:35:00,32.3,27.1,30.06,SW,218,3.0,7.0,81,0.00,,---,0.00,VWS V14.01,2013-01-06 14:35:00,
2013-01-06 09:40:00,32.6,27.1,30.05,WNW,301,0.0,9.0,80,0.00,,---,0.00,VWS V14.01,2013-01-06 14:40:00,
2013-01-06 09:45:00,32.8,27.3,30.05,WNW,285,5.0,11.0,80,0.00,,---,0.00,VWS V14.01,2013-01-06 14:45:00,
2013-01-06 09:50:00,33.1,27.3,30.05,SW,227,4.0,6.0,79,0.00,,---,0.00,VWS V14.01,2013-01-06 14:50:00,
2013-01-06 09:55:00,33.4,27.3,30.05,ESE,113,2.0,13.0,78,0.00,,---,0.00,VWS V14.01,2013-01-06 14:55:00,
2013-01-06 10:00:00,33.6,27.2,30.05,ENE,61,1.0,11.0,77,0.00,,---,0.00,VWS V14.01,2013-01-06 15:00:00,
2013-01-06 10:05:00,33.8,27.4,30.05,SSW,198,1.0,7.0,77,0.00,,---,0.00,VWS V14.01,2013-01-06 15:05:00,
2013-01-06 10:10:00,34.1,27.3,30.05,North,352,0.0,6.0,76,0.00,,---,0.00,VWS V14.01,2013-01-06 15:10:00,
2013-01-06 10:15:00,34.4,27.3,30.04,SW,217,2.0,3.0,75,0.00,,---,0.00,VWS V14.01,2013-01-06 15:15:00,
2013-01-06 10:20:00,34.7,27.3,30.04,NNE,17,4.0,12.0,74,0.00,,---,0.00,VWS V14.01,2013-01-06 15:20:00,
2013-01-06 10:25:00,35.0,27.6,30.04,SSE,156,0.0,10.0,74,0.00,,---,0.00,VWS V14.01,2013-01-06 15:25:00,
2013-01-06 10:30:00,35.4,27.6,30.04,SW,228,3.0,10.0,73,0.00,,---,0.00,VWS V14.01,2013-01-06 15:30:00,
2013-01-06 10:35:00,35.7,27.6,30.04,WSW,248,3.0,10.0,72,0.00,,---,0.00,VWS V14.01,2013-01-06 15:35:00,
2013-01-06 10:40:00,35.9,27.4,30.03,WNW,288,3.0,10.0,71,0.00,,---,0.00,VWS V14.01,2013-01-06 15:40:00,
2013-01-06 10:45:00,36.2,27.4,30.03,SW,227,2.0,13.0,70,0.00,,---,0.00,VWS V14.01,2013-01-06 15:45:00,
2013-01-06 10:50:00,36.4,27.6,30.03,WNW,292,3.0,6.0,70,0.00,,---,0.00,VWS V14.01,2013-01-06 15:50:00,
2013-01-06 10:55:00,36.7,27.5,30.03,SSW,192,0.0,10.0,69,0.00,,---,0.00,VWS V14.01,2013-01-06 15:55:00,
2013-01-06 11:00:00,36.9,27.3,30.02,NW,308,6.0,15.0,68,0.00,,---,0.00,VWS V14.01,2013-01-06 16:00:00,
2013-01-06 11:05:00,37.0,27.4,30.02,South,173,1.0,10.0,68,0.00,,---,0.00,VWS V14.01,2013-01-06 16:05:00,
2013-01-06 11:10:00,37.3,27.4,30.01,NW,318,3.0,8.0,67,0.00,,---,0.00,VWS V14.01,2013-01-06 16:10:00,
2013-01-06 11:15:00,37.6,27.6,30.01,SW,227,2.0,7.0,67,0.00,,---,0.00,VWS V14.01,2013-01-06 16:15:00,
2013-01-06 11:20:00,37.9,27.6,30.00,NNE,14,2.0,6.0,66,0.00,,---,0.00,VWS V14.01,2013-01-06 16:20:00,
2013-01-06 11:25:00,38.2,27.9,30.00,South,186,1.0,12.0,66,0.00,,---,0.00,VWS V14.01,2013-01-06 16:25:00,
2013-01-06 11:30:00,38.3,27.6,30.00,SW,219,4.0,12.0,65,0.00,,---,0.00,VWS V14.01,2013-01-06 16:30:00,
2013-01-06 11:35:00,38.3,27.6,30.00,SW,232,3.0,11.0,65,0.00,,---,0.00,VWS V14.01,2013-01-06 16:35:00,
2013-01-06 11:40:00,38.4,27.7,29.99,WSW,239,4.0,9.0,65,0.00,,---,0.00,VWS V14.01,2013-01-06 16:40:00,
2013-01-06 11:45:00,38.5,27.8,29.99,NNW,333,0.0,7.0,65,0.00,,---,0.00,VWS V14.01,2013-01-06 16:45:00,
2013-01-06 11:50:00,38.6,27.9,29.99,SSW,210,5.0,10.0,65,0.01,,---,0.01,VWS V14.01,2013-01-06 16:50:00,
2013-01-06 11:55:00,38.7,28.0,29.98,West,266,0.0,8.0,65,0.01,,---,0.01,VWS V14.01,2013-01-06 16:55:00,
2013-01-06 12:00:00,38.9,27.8,29.98,WSW,243,5.0,5.0,64,0.01,,---,0.01,VWS V14.01,2013-01-06 17:00:00,
2013-01-06 12:05:00,39.1,28.0,29.98,NNW,330,0.0,9.0,64,0.01,,---,0.01,VWS V14.01,2013-01-06 17:05:00,
2013-01-06 12:10:00,39.4,27.9,29.97,SW,229,1.0,6.0,63,0.01,,---,0.01,VWS V14.01,2013-01-06 17:10:00,
2013-01-06 12:15:00,39.8,28.2,29.97,WSW,246,5.0,7.0,63,0.01,,---,0.01,VWS V14.01,2013-01-06 17:15:00,
2013-01-06 12:20:00,40.2,28.2,29.97,NW,324,1.0,7.0,62,0.01,,---,0.01,VWS V14.01,2013-01-06 17:20:00,
2013-01-06 12:25:00,40.3,27.9,29.97,NW,305,4.0,6.0,61,0.01,,---,0.01,VWS V14.01,2013-01-06 17:25:00,
2013-01-06 12:30:00,40.4,28.0,29.96,SSW,200,0.0,7.0,61,0.01,,---,0.01,VWS V14.01,2013-01-06 17:30:00,
2013-01-06 12:35:00,40.7,28.3,29.96,NNW,331,4.0,4.0,61,0.01,,---,0.01,VWS V14.01,2013-01-06 17:35:00,
2013-01-06 12:40:00,40.9,28.5,29.96,WNW,299,4.0,6.0,61,0.01,,---,0.01,VWS V14.01,2013-01-06 17:40:00,
2013-01-06 12:45:00,40.8,28.4,29.96,NNW,344,1.0,7.0,61,0.01,,---,0.01,VWS V14.01,2013-01-06 17:45:00,
2013-01-06 12:50:00,40.8,28.4,29.96,SSW,198,3.0,6.0,61,0.01,,---,0.01,VWS V14.01,2013-01-06 17:50:00,
2013-01-06 12:55:00,41.1,28.3,29.95,SSW,210,3.0,10.0,60,0.00,,---,0.01,VWS V14.01,2013-01-06 17:55:00,
2013-01-06 13:00:00,41.2,28.0,29.95,WNW,287,4.0,7.0,59,0.00,,---,0.01,VWS V14.01,2013-01-06 18:00:00,
2013-01-06 13:05:00,41.3,28.1,29.95,NW,319,2.0,13.0,59,0.00,,---,0.01,VWS V14.01,2013-01-06 18:05:00,
2013-01-06 13:10:00,41.4,28.6,29.95,WNW,289,1.0,6.0,60,0.01,,---,0.02,VWS V14.01,2013-01-06 18:10:00,
2013-01-06 13:15:00,41.8,28.5,29.95,North,358,7.0,7.0,59,0.01,,---,0.02,VWS V14.01,2013-01-06 18:15:00,
2013-01-06 13:20:00,41.8,28.1,29.94,NNW,332,4.0,9.0,58,0.01,,---,0.02,VWS V14.01,2013-01-06 18:20:00,
2013-01-06 13:25:00,41.8,28.1,29.94,NW,314,2.0,9.0,58,0.01,,---,0.02,VWS V14.01,2013-01-06 18:25:00,
2013-01-06 13:30:00,42.0,28.3,29.94,WSW,246,2.0,12.0,58,0.01,,---,0.02,VWS V14.01,2013-01-06 18:30:00,
2013-01-06 13:35:00,42.0,28.3,29.95,NW,304,6.0,13.0,58,0.01,,---,0.02,VWS V14.01,2013-01-06 18:35:00,
2013-01-06 13:40:00,42.1,28.4,29.94,NW,316,6.0,6.0,58,0.01,,---,0.02,VWS V14.01,2013-01-06 18:40:00,
2013-01-06 13:45:00,42.1,28.0,29.95,NNW,339,3.0,6.0,57,0.01,,---,0.02,VWS V14.01,2013-01-06 18:45:00,
2013-01-06 13:50:00,42.1,28.4,29.95,NNE,15,1.0,7.0,58,0.01,,---,0.02,VWS V14.01,2013-01-06 18:50:00,
2013-01-06 13:55:00,41.9,27.8,29.95,SSW,213,2.0,9.0,57,0.01,,---,0.02,VWS V14.01,2013-01-06 18:55:00,
2013-01-06 14:00:00,41.9,28.2,29.95,NW,318,0.0,5.0,58,0.01,,---,0.02,VWS V14.01,2013-01-06 19:00:00,
2013-01-06 14:05:00,42.0,27.9,29.95,North,359,2.0,12.0,57,0.01,,---,0.02,VWS V14.01,2013-01-06 19:05:00,
2013-01-06 14:10:00,42.0,28.3,29.95,North,354,3.0,7.0,58,0.01,,---,0.02,VWS V14.01,2013-01-06 19:10:00,
2013-01-06 14:15:00,42.1,28.0,29.95,NNE,30,1.0,6.0,57,0.00,,---,0.02,VWS V14.01,2013-01-06 19:15:00,
2013-01-06 14:20:00,42.0,28.3,29.95,North,357,3.0,9.0,58,0.00,,---,0.02,VWS V14.01,2013-01-06 19:20:00,
2013-01-06 14:25:00,42.0,28.3,29.95,West,262,0.0,4.0,58,0.00,,---,0.02,VWS V14.01,2013-01-06 19:25:00,
2013-01-06 14:30:00,41.8,28.1,29.95,NNE,15,1.0,6.0,58,0.00,,---,0.02,VWS V14.01,2013-01-06 19:30:00,
2013-01-06 14:35:00,41.7,28.0,29.95,WNW,299,1.0,10.0,58,0.00,,---,0.02,VWS V14.01,2013-01-06 19:35:00,
2013-01-06 14:40:00,41.5,27.8,29.95,North,8,1.0,6.0,58,0.00,,---,0.02,VWS V14.01,2013-01-06 19:40:00,
2013-01-06 14:45:00,41.4,28.2,29.95,NNE,24,5.0,6.0,59,0.00,,---,0.02,VWS V14.01,2013-01-06 19:45:00,
2013-01-06 14:50:00,41.2,28.0,29.96,NNW,334,0.0,9.0,59,0.00,,---,0.02,VWS V14.01,2013-01-06 19:50:00,
2013-01-06 14:55:00,41.0,27.8,29.95,North,4,1.0,9.0,59,0.00,,---,0.02,VWS V14.01,2013-01-06 19:55:00,
2013-01-06 15:00:00,40.7,27.9,29.96,NW,306,3.0,6.0,60,0.00,,---,0.02,VWS V14.01,2013-01-06 20:00:00,
2013-01-06 15:05:00,40.6,27.8,29.95,North,4,3.0,7.0,60,0.00,,---,0.02,VWS V14.01,2013-01-06 20:05:00,
2013-01-06 15:10:00,40.5,28.1,29.95,NNW,346,0.0,4.0,61,0.00,,---,0.02,VWS V14.01,2013-01-06 20:10:00,
2013-01-06 15:15:00,40.4,28.0,29.95,North,6,1.0,6.0,61,0.00,,---,0.02,VWS V14.01,2013-01-06 20:15:00,
2013-01-06 15:20:00,40.3,27.9,29.95,NNE,15,2.0,8.0,61,0.00,,---,0.02,VWS V14.01,2013-01-06 20:20:00,
2013-01-06 15:25:00,40.2,27.8,29.95,NW,319,0.0,6.0,61,0.00,,---,0.02,VWS V14.01,2013-01-06 20:25:00,
2013-01-06 15:30:00,40.1,27.8,29.95,NW,326,0.0,4.0,61,0.00,,---,0.02,VWS V14.01,2013-01-06 20:30:00,
2013-01-06 15:35:00,40.0,27.6,29.95,North,350,1.0,9.0,61,0.00,,---,0.02,VWS V14.01,2013-01-06 20:35:00,
2013-01-06 15:40:00,39.8,27.5,29.95,NNE,17,3.0,11.0,61,0.00,,---,0.02,VWS V14.01,2013-01-06 20:40:00,
2013-01-06 15:45:00,39.6,27.7,29.95,North,360,0.0,7.0,62,0.00,,---,0.02,VWS V14.01,2013-01-06 20:45:00,
2013-01-06 15:50:00,39.4,27.5,29.95,NW,316,1.0,5.0,62,0.00,,---,0.02,VWS V14.01,2013-01-06 20:50:00,
2013-01-06 15:55:00,39.2,27.7,29.95,NE,35,3.0,4.0,63,0.00,,---,0.02,VWS V14.01,2013-01-06 20:55:00,
2013-01-06 16:00:00,39.1,27.6,29.95,West,275,1.0,6.0,63,0.00,,---,0.02,VWS V14.01,2013-01-06 21:00:00,
2013-01-06 16:05:00,38.8,27.7,29.95,WNW,297,0.0,4.0,64,0.00,,---,0.02,VWS V14.01,2013-01-06 21:05:00,
2013-01-06 16:10:00,38.4,27.3,29.95,WNW,297,0.0,0.0,64,0.00,,---,0.02,VWS V14.01,2013-01-06 21:10:00,
2013-01-06 16:15:00,37.8,27.5,29.95,WNW,297,0.0,1.0,66,0.00,,---,0.02,VWS V14.01,2013-01-06 21:15:00,
2013-01-06 16:20:00,37.0,27.4,29.95,WNW,297,0.0,1.0,68,0.00,,---,0.02,VWS V14.01,2013-01-06 21:20:00,
2013-01-06 16:25:00,36.3,27.1,29.95,WNW,297,0.0,0.0,69,0.00,,---,0.02,VWS V14.01,2013-01-06 21:25:00,
2013-01-06 16:30:00,35.5,27.0,29.95,WNW,297,0.0,0.0,71,0.00,,---,0.02,VWS V14.01,2013-01-06 21:30:00,
2013-01-06 16:35:00,34.7,26.6,29.95,WNW,297,0.0,0.0,72,0.00,,---,0.02,VWS V14.01,2013-01-06 21:35:00,
2013-01-06 16:40:00,33.9,26.5,29.96,WNW,297,0.0,0.0,74,0.00,,---,0.02,VWS V14.01,2013-01-06 21:40:00,
2013-01-06 16:45:00,33.4,26.3,29.96,WNW,297,0.0,0.0,75,0.00,,---,0.02,VWS V14.01,2013-01-06 21:45:00,
2013-01-06 16:50:00,32.8,26.1,29.95,WNW,297,0.0,0.0,76,0.00,,---,0.02,VWS V14.01,2013-01-06 21:50:00,
2013-01-06 16:55:00,32.4,26.3,29.96,WNW,297,0.0,0.0,78,0.00,,---,0.02,VWS V14.01,2013-01-06 21:55:00,
2013-01-06 17:00:00,32.0,25.9,29.96,WNW,297,0.0,0.0,78,0.00,,---,0.02,VWS V14.01,2013-01-06 22:00:00,
2013-01-06 17:05:00,31.6,25.9,29.96,WNW,297,0.0,0.0,79,0.00,,---,0.02,VWS V14.01,2013-01-06 22:05:00,
2013-01-06 17:10:00,31.3,25.9,29.96,WNW,297,0.0,0.0,80,0.00,,---,0.02,VWS V14.01,2013-01-06 22:10:00,
2013-01-06 17:15:00,31.0,25.9,29.96,WNW,297,0.0,0.0,81,0.00,,---,0.02,VWS V14.01,2013-01-06 22:15:00,
2013-01-06 17:20:00,30.7,25.6,29.97,WNW,297,0.0,0.0,81,0.00,,---,0.02,VWS V14.01,2013-01-06 22:20:00,
2013-01-06 17:25:00,30.3,25.5,29.97,WNW,297,0.0,0.0,82,0.00,,---,0.02,VWS V14.01,2013-01-06 22:25:00,
2013-01-06 17:30:00,30.0,25.5,29.97,WNW,297,0.0,0.0,83,0.00,,---,0.02,VWS V14.01,2013-01-06 22:30:00,
2013-01-06 17:35:00,29.7,25.2,29.96,WNW,297,0.0,0.0,83,0.00,,---,0.02,VWS V14.01,2013-01-06 22:35:00,
2013-01-06 17:40:00,29.5,25.0,29.97,WNW,297,0.0,0.0,83,0.00,,---,0.02,VWS V14.01,2013-01-06 22:40:00,
2013-01-06 17:45:00,29.3,25.1,29.97,WNW,297,0.0,0.0,84,0.00,,---,0.02,VWS V14.01,2013-01-06 22:45:00,
2013-01-06 17:50:00,29.2,25.3,29.97,WNW,297,0.0,0.0,85,0.00,,---,0.02,VWS V14.01,2013-01-06 22:50:00,
2013-01-06 17:55:00,29.2,25.3,29.97,WNW,297,0.0,0.0,85,0.00,,---,0.02,VWS V14.01,2013-01-06 22:55:00,
2013-01-06 18:00:00,29.0,25.1,29.97,WNW,297,0.0,0.0,85,0.00,,---,0.02,VWS V14.01,2013-01-06 23:00:00,
2013-01-06 18:05:00,28.9,25.2,29.97,WNW,297,0.0,0.0,86,0.00,,---,0.02,VWS V14.01,2013-01-06 23:05:00,
2013-01-06 18:10:00,28.8,25.1,29.97,WNW,297,0.0,0.0,86,0.00,,---,0.02,VWS V14.01,2013-01-06 23:10:00,
2013-01-06 18:15:00,28.8,25.1,29.97,WNW,297,0.0,0.0,86,0.00,,---,0.02,VWS V14.01,2013-01-06 23:15:00,
2013-01-06 18:20:00,28.7,25.0,29.97,WNW,297,0.0,0.0,86,0.00,,---,0.02,VWS V14.01,2013-01-06 23:20:00,
2013-01-06 18:25:00,28.7,25.3,29.97,WNW,297,0.0,0.0,87,0.00,,---,0.02,VWS V14.01,2013-01-06 23:25:00,
2013-01-06 18:30:00,28.8,25.7,29.97,WNW,297,0.0,0.0,88,0.00,,---,0.02,VWS V14.01,2013-01-06 23:30:00,
2013-01-06 18:35:00,29.2,26.1,29.97,WNW,297,0.0,0.0,88,0.00,,---,0.02,VWS V14.01,2013-01-06 23:35:00,
2013-01-06 18:40:00,29.5,26.4,29.97,WNW,297,0.0,0.0,88,0.00,,---,0.02,VWS V14.01,2013-01-06 23:40:00,
2013-01-06 18:45:00,29.6,26.2,29.97,WNW,297,0.0,0.0,87,0.00,,---,0.02,VWS V14.01,2013-01-06 23:45:00,
2013-01-06 18:50:00,29.7,26.3,29.97,WNW,297,0.0,0.0,87,0.00,,---,0.02,VWS V14.01,2013-01-06 23:50:00,
2013-01-06 18:55:00,29.9,26.5,29.97,WNW,297,0.0,0.0,87,0.00,,---,0.02,VWS V14.01,2013-01-06 23:55:00,
2013-01-06 19:00:00,30.0,26.6,29.97,WNW,297,0.0,0.0,87,0.00,,---,0.02,VWS V14.01,2013-01-07 00:00:00,
2013-01-06 19:05:00,30.0,26.6,29.97,WNW,297,0.0,0.0,87,0.00,,---,0.02,VWS V14.01,2013-01-07 00:05:00,
2013-01-06 19:10:00,30.1,26.7,29.97,WNW,297,0.0,0.0,87,0.00,,---,0.02,VWS V14.01,2013-01-07 00:10:00,
2013-01-06 19:15:00,30.1,26.7,29.97,WNW,297,0.0,0.0,87,0.00,,---,0.02,VWS V14.01,2013-01-07 00:15:00,
2013-01-06 19:20:00,30.1,26.7,29.97,WNW,297,0.0,0.0,87,0.00,,---,0.02,VWS V14.01,2013-01-07 00:20:00,
2013-01-06 19:25:00,30.2,26.8,29.97,WNW,297,0.0,0.0,87,0.00,,---,0.02,VWS V14.01,2013-01-07 00:25:00,
2013-01-06 19:30:00,30.2,26.8,29.97,WNW,297,0.0,0.0,87,0.00,,---,0.02,VWS V14.01,2013-01-07 00:30:00,
2013-01-06 19:35:00,30.2,26.8,29.97,WNW,297,0.0,0.0,87,0.00,,---,0.02,VWS V14.01,2013-01-07 00:35:00,
2013-01-06 19:40:00,30.1,26.7,29.97,WNW,297,0.0,0.0,87,0.00,,---,0.02,VWS V14.01,2013-01-07 00:40:00,
2013-01-06 19:45:00,30.1,26.7,29.97,WNW,297,0.0,0.0,87,0.00,,---,0.02,VWS V14.01,2013-01-07 00:45:00,
2013-01-06 19:50:00,30.1,26.7,29.97,WNW,297,0.0,0.0,87,0.00,,---,0.02,VWS V14.01,2013-01-07 00:50:00,
2013-01-06 19:55:00,30.2,26.8,29.97,WNW,297,0.0,0.0,87,0.00,,---,0.02,VWS V14.01,2013-01-07 00:55:00,
2013-01-06 20:00:00,30.2,26.8,29.97,WNW,297,0.0,0.0,87,0.00,,---,0.02,VWS V14.01,2013-01-07 01:00:00,
2013-01-06 20:05:00,30.2,26.8,29.98,WNW,297,0.0,0.0,87,0.00,,---,0.02,VWS V14.01,2013-01-07 01:05:00,
2013-01-06 20:10:00,30.3,27.2,29.97,WNW,297,0.0,0.0,88,0.00,,---,0.02,VWS V14.01,2013-01-07 01:10:00,
2013-01-06 20:15:00,30.3,27.2,29.97,WNW,297,0.0,0.0,88,0.00,,---,0.02,VWS V14.01,2013-01-07 01:15:00,
2013-01-06 20:20:00,30.3,27.2,29.97,WNW,297,0.0,0.0,88,0.00,,---,0.02,VWS V14.01,2013-01-07 01:20:00,
2013-01-06 20:25:00,30.3,26.9,29.97,WNW,297,0.0,0.0,87,0.00,,---,0.02,VWS V14.01,2013-01-07 01:25:00,
2013-01-06 20:30:00,30.4,27.3,29.97,WNW,297,0.0,0.0,88,0.00,,---,0.02,VWS V14.01,2013-01-07 01:30:00,
2013-01-06 20:35:00,30.4,27.3,29.97,WNW,297,0.0,0.0,88,0.00,,---,0.02,VWS V14.01,2013-01-07 01:35:00,
2013-01-06 20:40:00,30.5,27.4,29.97,WNW,297,0.0,0.0,88,0.00,,---,0.02,VWS V14.01,2013-01-07 01:40:00,
2013-01-06 20:45:00,30.5,27.4,29.97,WNW,297,0.0,0.0,88,0.00,,---,0.02,VWS V14.01,2013-01-07 01:45:00,
2013-01-06 20:50:00,30.5,27.4,29.97,WNW,297,0.0,0.0,88,0.00,,---,0.02,VWS V14.01,2013-01-07 01:50:00,
2013-01-06 20:55:00,30.3,27.2,29.97,WNW,297,0.0,0.0,88,0.00,,---,0.02,VWS V14.01,2013-01-07 01:55:00,
2013-01-06 21:00:00,30.2,27.1,29.97,WNW,297,0.0,0.0,88,0.00,,---,0.02,VWS V14.01,2013-01-07 02:00:00,
2013-01-06 21:05:00,30.2,27.1,29.97,WNW,297,0.0,0.0,88,0.00,,---,0.02,VWS V14.01,2013-01-07 02:05:00,
2013-01-06 21:10:00,30.1,27.0,29.97,WNW,297,0.0,0.0,88,0.00,,---,0.02,VWS V14.01,2013-01-07 02:10:00,
2013-01-06 21:15:00,29.9,26.8,29.97,WNW,297,0.0,0.0,88,0.00,,---,0.02,VWS V14.01,2013-01-07 02:15:00,
2013-01-06 21:20:00,29.7,26.6,29.97,WNW,297,0.0,0.0,88,0.00,,---,0.02,VWS V14.01,2013-01-07 02:20:00,
2013-01-06 21:25:00,29.6,26.5,29.97,WNW,297,0.0,0.0,88,0.00,,---,0.02,VWS V14.01,2013-01-07 02:25:00,
2013-01-06 21:30:00,29.4,26.3,29.97,WNW,297,0.0,0.0,88,0.00,,---,0.02,VWS V14.01,2013-01-07 02:30:00,
2013-01-06 21:35:00,29.3,26.5,29.97,WNW,297,0.0,0.0,89,0.00,,---,0.02,VWS V14.01,2013-01-07 02:35:00,
2013-01-06 21:40:00,29.2,26.4,29.97,WNW,297,0.0,0.0,89,0.00,,---,0.02,VWS V14.01,2013-01-07 02:40:00,
2013-01-06 21:45:00,29.2,26.4,29.97,WNW,297,0.0,0.0,89,0.00,,---,0.02,VWS V14.01,2013-01-07 02:45:00,
2013-01-06 21:50:00,29.1,26.3,29.97,WNW,297,0.0,0.0,89,0.00,,---,0.02,VWS V14.01,2013-01-07 02:50:00,
2013-01-06 21:55:00,29.0,26.2,29.97,WNW,297,0.0,0.0,89,0.00,,---,0.02,VWS V14.01,2013-01-07 02:55:00,
2013-01-06 22:00:00,29.1,26.3,29.97,WNW,297,0.0,0.0,89,0.00,,---,0.02,VWS V14.01,2013-01-07 03:00:00,
2013-01-06 22:05:00,29.2,26.4,29.97,WNW,297,0.0,0.0,89,0.00,,---,0.02,VWS V14.01,2013-01-07 03:05:00,
2013-01-06 22:10:00,29.5,26.7,29.98,WNW,297,0.0,0.0,89,0.00,,---,0.02,VWS V14.01,2013-01-07 03:10:00,
2013-01-06 22:15:00,29.9,27.1,29.97,WNW,297,0.0,2.0,89,0.00,,---,0.02,VWS V14.01,2013-01-07 03:15:00,
2013-01-06 22:20:00,30.5,27.6,29.97,WNW,297,0.0,0.0,89,0.00,,---,0.02,VWS V14.01,2013-01-07 03:20:00,
2013-01-06 22:25:00,30.7,27.6,29.97,WNW,297,0.0,0.0,88,0.00,,---,0.02,VWS V14.01,2013-01-07 03:25:00,
2013-01-06 22:30:00,30.9,27.8,29.97,WNW,297,0.0,0.0,88,0.00,,---,0.02,VWS V14.01,2013-01-07 03:30:00,
2013-01-06 22:35:00,31.0,27.6,29.97,WNW,297,0.0,0.0,87,0.00,,---,0.02,VWS V14.01,2013-01-07 03:35:00,
2013-01-06 22:40:00,31.1,27.7,29.97,WNW,297,0.0,0.0,87,0.00,,---,0.02,VWS V14.01,2013-01-07 03:40:00,
2013-01-06 22:45:00,31.2,27.8,29.97,WNW,297,0.0,0.0,87,0.00,,---,0.02,VWS V14.01,2013-01-07 03:45:00,
2013-01-06 22:50:00,31.2,27.8,29.97,WNW,297,0.0,0.0,87,0.00,,---,0.02,VWS V14.01,2013-01-07 03:50:00,
2013-01-06 22:55:00,31.2,27.5,29.97,WNW,297,0.0,0.0,86,0.00,,---,0.02,VWS V14.01,2013-01-07 03:55:00,
2013-01-06 23:00:00,31.1,27.4,29.96,WNW,297,0.0,0.0,86,0.00,,---,0.02,VWS V14.01,2013-01-07 04:00:00,
2013-01-06 23:05:00,31.0,27.3,29.96,WNW,297,0.0,0.0,86,0.00,,---,0.02,VWS V14.01,2013-01-07 04:05:00,
2013-01-06 23:10:00,30.8,27.1,29.96,WNW,297,0.0,0.0,86,0.00,,---,0.02,VWS V14.01,2013-01-07 04:10:00,
2013-01-06 23:15:00,30.6,26.9,29.96,WNW,297,0.0,0.0,86,0.00,,---,0.02,VWS V14.01,2013-01-07 04:15:00,
2013-01-06 23:20:00,30.4,26.7,29.96,WNW,297,0.0,0.0,86,0.00,,---,0.02,VWS V14.01,2013-01-07 04:20:00,
2013-01-06 23:25:00,30.1,26.4,29.97,WNW,297,0.0,0.0,86,0.00,,---,0.02,VWS V14.01,2013-01-07 04:25:00,
2013-01-06 23:30:00,29.8,26.1,29.96,WNW,297,0.0,0.0,86,0.00,,---,0.02,VWS V14.01,2013-01-07 04:30:00,
2013-01-06 23:35:00,29.5,26.1,29.96,WNW,297,0.0,0.0,87,0.00,,---,0.02,VWS V14.01,2013-01-07 04:35:00,
2013-01-06 23:40:00,29.3,25.9,29.96,WNW,297,0.0,0.0,87,0.00,,---,0.02,VWS V14.01,2013-01-07 04:40:00,
2013-01-06 23:45:00,29.3,25.9,29.96,WNW,297,0.0,1.0,87,0.00,,---,0.02,VWS V14.01,2013-01-07 04:45:00,
2013-01-06 23:50:00,29.2,25.8,29.96,WNW,297,0.0,0.0,87,0.00,,---,0.02,VWS V14.01,2013-01-07 04:50:00,
2013-01-06 23:55:00,29.2,25.5,29.96,WNW,297,0.0,1.0,86,0.00,,---,0.02,VWS V14.01,2013-01-07 04:55:00,